Starlink 11430

operational
NORAD ID: 62916 Int'l Des: 2025-027 Owner: SPXS Country: US Constellation: starlink
LEOCIRCULAR

Über Starlink 11430

Beschreibung wird geladen...

Live-Position

3D-Globus wird geladen...

Nächste Überflüge

Höhenverlauf

Altitude vs Time

uPlot chart will show altitude changes over time

Zweizeiliger Elementsatz

1 62916U 25027K 26034.45718521 .00215020 00000-0 16300-2 0 9990
2 62916 42.9992 194.4148 0001825 252.9057 107.1611 15.70930396 57808
Epoch: 3. Feb. 2026 • Age: 17 hours

Aktueller Status

Höhe 357.3 km
Geschwindigkeit 7.70 km/s
Subsatellitenpunkt 32.03°N, 38.1°E
Startdatum 8. Feb. 2025
Alter 0.9 years
Typ internet

Technische Details

Klassifizierung Payload
Masse 960.00 kg
Trockenmasse 910.00 kg
Gesamtmasse 960.00 kg
Länge 0.30 m
Durchmesser 4.10 m
Spannweite 29.00 m
Form Box + pan
Hersteller SPXS
Bus-Typ Starlink V2MD
Phasenstatus In Orbit
Besitzer/Staat SPXS/US

Große Konstellationen

Loading constellations...